Weather in Mar'inskoye

Russia / Kaliningrad Oblast     54°55′46″N   19°57′44″E
temp.,
°C
wind,
m/s
gust,
m/s
humid.,
%
clouds,
%
prec.,
mm/h
press.,
hPa
HPBL,
m
14 june, mon
mon1423:00+14nw34815 0.0 1020221
02:00+15w33855 0.0 1020195
05:00+14s22845 0.0 1020116
08:00+15s33835 0.0 1021192
11:00+15wsw44820 0.0 1021209
14:00+15wsw55745 0.0 1021242
17:00+15wsw44725 0.0 1019182
20:00+16wsw34725 0.0 101880
15 june, tue
tue1523:00+16ssw4570100 0.0 101765
02:00+15ssw6885100 0.0 1016123
05:00+15sw71088100 0.0 1015163
08:00+16w61090100 0.0 1016229
11:00+15w6994100 0.7 1016410
14:00+15wnw687489 0.7 1017517
17:00+15wnw677579 0.0 1018483
20:00+15wnw57795 0.0 1018355
16 june, wed
wed1623:00+15w58835 0.0 1018300
02:00+15wsw568420 0.0 1019209
05:00+15w568538 0.0 1019263
08:00+15w4481100 0.0 1020149
11:00+15w4477100 0.0 1021191
14:00+16wnw337016 0.0 1022202
17:00+16n11621 0.0 1022113
20:00+16ene22665 0.0 102135
17 june, thu
thu1723:00+15se34722 0.0 102255
02:00+14se56805 0.0 1022125
05:00+14sse57840 0.0 1022140
08:00+16sse45805 0.0 1023120
11:00+18se22745 0.0 102326
14:00+19ese33725 0.0 102238
17:00+20ese33700 0.0 102249
20:00+20ese57791 0.0 102159
18 june, fri
fri1823:00+17se68774 0.0 102187
02:00+16se58820 0.0 102199
05:00+16sse68830 0.0 1021110
08:00+17sse56820 0.0 102165
11:00+20sse44780 0.0 102035
14:00+21sse55710 0.0 102039
17:00+22se44680 0.0 101937
20:00+22se44781 0.1 101914